weather.gov     
National Weather Service

Terminal Aerodrome Forecast
NWS Homepage
This page is being discontinued on March 12, 2014.
The same data is available at this site. Please update your bookmarks.
Thank you, and we apologize for the inconvenience.
Please send an email to SR-SRH.Webmaster@noaa.gov with any concerns.


Current Version
Previous Version:    01  02  03  04  05  06  07  08  09  10  11  12  13  14  15  16  17  
[Printable]
929
FTUS46 KPDT 301100
TAFRDM
TAF
KRDM 301120Z 3012/3112 16005KT 6SM -RA BKN050 OVC070
     FM301800 33004KT P6SM BKN110 OVC130
     FM310400 16004KT P6SM VCSH SCT060 BKN100
     FM310700 21005KT P6SM -RA SCT010 BKN040 OVC060=


U.S. Dept. of Commerce
NOAA National Weather Service
1325 East West Highway
Silver Spring, MD 20910
E-mail: w-nws.webmaster@noaa.gov
Page last modified: May 16, 2007
NATIONAL WEATHER SERVICE: for Safety, for Work, for Fun - FOR LIFE